Theta_e
311 311 312 313 309 309 310 310 310 308 309 310 308 308 309 310 307 308 307 307 307 308 307 307 306 306 304 304 303 303 303 304 305 304 300 299 298 296 294 293 293 293 293 294
312 313 311 310 309 310 310 310 309 308 309 310 309 309 310 309 307 306 307 307 307 306 306 304 305 304 304 303 303 302 302 303 305 305 302 302 299 296 293 291 291 292 292 292
313 313 308 310 310 310 309 310 310 311 309 308 308 310 309 309 309 308 308 306 306 306 307 305 303 302 303 302 302 302 301 301 304 305 304 303 298 295 293 291 291 291 291 291
312 310 309 310 310 308 312 308 311 311 310 312 310 316 311 310 307 308 307 308 306 306 306 305 303 302 302 302 302 301 300 300 301 303 303 302 299 296 295 292 290 290 290 290
314 310 310 311 310 308 312 309 309 309 309 311 311 312 312 309 311 309 307 305 306 304 305 305 303 303 302 303 301 300 299 298 298 300 302 301 300 299 296 291 290 289 289 289
310 309 309 310 310 308 308 310 310 309 310 315 313 312 313 312 311 309 308 306 306 305 305 304 303 303 302 303 301 300 299 297 296 296 297 299 299 297 293 291 290 290 289 289
315 312 309 308 311 308 311 312 317 318 318 320 310 311 313 311 307 307 308 306 304 304 305 303 301 301 301 301 300 299 297 296 294 293 294 294 294 294 292 291 290 290 289 288
315 318 311 307 311 312 310 311 317 323 321 317 310 315 315 307 304 303 303 303 301 300 299 298 301 301 300 299 298 297 296 295 293 292 292 292 292 292 291 290 290 290 289 288
314 316 308 306 307 311 312 313 310 315 312 314 314 311 310 306 307 303 302 298 295 293 292 292 292 294 298 298 296 296 295 294 293 292 291 291 291 290 290 290 289 288 288 288
314 316 310 306 306 305 309 308 313 311 321 324 318 315 317 309 310 303 299 295 293 292 292 291 290 290 291 294 295 294 294 293 292 291 290 289 289 289 288 288 287 287 287 287
311 312 312 307 308 310 307 309 309 311 321 323 321 318 312 310 308 300 296 293 292 291 291 289 289 288 288 289 289 289 289 290 289 289 289 288 288 287 287 287 287 287 287 286
309 309 312 312 310 308 308 308 309 317 319 318 318 320 307 304 304 298 295 294 293 292 291 290 289 288 287 287 287 287 288 287 287 286 286 286 286 286 287 287 287 288 286 285
309 311 314 315 312 312 310 307 309 315 318 322 322 319 304 302 301 297 294 295 294 292 290 288 287 286 286 285 286 286 286 286 287 288 287 287 287 287 287 286 286 286 286 286
310 311 317 321 317 315 316 315 311 315 320 318 319 318 310 306 301 298 297 294 292 291 289 287 286 285 284 284 284 284 284 284 285 285 286 286 286 286 285 286 286 286 286 286
310 314 309 313 311 311 313 313 315 318 318 320 319 319 316 311 305 299 295 293 291 289 288 287 285 284 283 283 282 282 282 283 283 284 284 284 285 285 285 285 285 285 285 285
311 316 315 319 317 317 319 317 316 316 316 317 317 317 302 296 294 294 292 291 290 288 286 285 284 283 282 282 281 280 280 280 282 283 283 283 283 284 284 284 284 284 284 284
312 315 315 320 317 317 320 317 316 315 314 315 317 311 296 294 293 291 290 288 287 285 284 283 282 282 281 281 280 280 280 279 279 280 281 281 281 281 282 282 282 282 282 282
316 314 315 319 319 321 313 297 300 308 299 297 297 297 295 292 288 287 286 285 285 284 283 283 281 280 280 279 278 278 279 279 279 279 279 279 279 279 279 279 279 279 280 280
315 317 318 319 319 316 311 300 300 304 299 293 294 292 289 287 285 285 284 283 283 282 281 281 279 279 279 278 277 277 277 278 278 277 278 278 277 277 277 277 277 277 277 278
311 314 317 318 318 319 300 291 291 295 303 290 291 289 287 288 290 285 282 282 281 279 279 278 277 277 278 276 275 276 276 276 276 275 275 275 275 275 275 275 275 275 275 276
313 314 317 317 318 312 289 288 290 305 298 286 286 285 285 286 283 282 280 279 278 277 277 277 276 276 276 275 274 275 274 274 273 273 273 273 273 273 273 274 274 274 274 274
311 313 314 316 317 316 283 289 294 284 282 282 281 282 282 281 280 280 279 278 276 275 275 275 275 275 274 273 273 273 273 272 272 272 272 272 272 272 272 272 272 273 273 273
309 295 299 292 289 282 281 281 281 281 280 280 280 280 280 280 279 278 277 275 274 274 274 274 274 274 273 272 273 272 271 270 271 271 270 271 271 271 271 271 272 272 272 272
291 285 290 288 281 280 280 278 277 277 277 277 277 277 277 277 276 275 275 274 274 273 273 273 273 272 271 271 271 270 269 270 270 269 269 270 270 270 271 270 270 271 271 271
279 281 283 282 280 279 278 277 277 276 276 276 276 275 275 275 275 273 272 272 272 272 272 272 271 270 270 270 269 269 269 268 269 268 269 269 268 269 269 269 269 270 270 271
277 276 279 281 278 279 277 276 277 276 275 275 275 274 273 273 273 272 271 271 271 270 271 269 269 269 269 268 268 268 268 268 268 268 268 267 268 268 268 269 268 269 270 271
Wind_Speed
2 3 5 6 5 3 2 3 5 5 4 3 6 11 20 10 9 10 9 9 10 13 6 19 27 25 23 21 20 18 16 15 15 16 14 9 7 7 6 6 7 7 8 8
4 4 4 4 4 3 3 3 6 6 2 1 7 12 22 14 7 7 9 9 10 6 7 11 23 26 28 25 22 20 17 17 16 16 13 5 10 6 6 6 6 6 6 6
5 2 6 4 3 3 4 5 4 6 5 3 6 8 7 4 3 3 4 6 7 11 11 10 16 26 28 26 25 22 19 17 17 15 13 10 10 9 7 6 5 5 5 6
5 0 4 3 4 7 4 5 2 1 3 3 4 6 7 5 8 5 6 4 6 7 7 7 12 19 29 28 23 20 18 16 15 14 14 14 10 9 8 8 6 5 5 5
5 5 4 4 6 7 6 2 1 2 3 3 2 1 8 3 7 6 7 6 4 7 8 9 12 18 23 24 22 19 17 15 14 14 14 13 10 8 8 10 9 6 5 4
6 1 5 6 2 4 3 2 4 4 3 1 4 5 5 4 1 6 2 4 3 6 6 6 10 15 19 19 19 18 17 15 13 12 12 12 11 10 13 12 10 8 6 4
2 4 2 2 2 2 3 4 4 4 2 6 5 3 9 3 6 5 2 2 6 7 6 6 6 10 17 19 19 18 16 14 12 10 9 10 10 11 11 11 11 9 7 5
4 6 8 5 5 7 5 6 5 6 4 5 0 7 5 1 4 6 7 9 11 11 9 9 7 8 9 12 14 14 14 12 11 9 8 8 9 10 10 10 10 9 7 6
5 6 2 3 2 3 3 4 2 1 1 2 4 7 4 4 6 8 9 11 11 10 11 11 14 15 10 8 7 9 10 8 9 8 7 7 7 8 9 8 8 7 6 4
3 5 3 2 2 2 4 3 3 2 4 6 5 6 6 6 3 4 6 8 8 9 11 11 13 16 15 14 7 2 3 5 5 5 5 6 5 5 5 5 5 5 4 4
5 4 2 4 7 9 2 3 3 2 4 4 4 6 4 7 6 7 6 7 7 7 8 8 13 16 17 20 16 11 9 6 3 0 1 2 3 3 4 4 5 4 4 6
4 4 5 11 3 2 4 8 9 6 5 4 2 11 3 6 7 9 8 9 8 8 8 8 12 14 18 20 19 15 14 15 12 7 4 3 2 0 1 3 6 9 6 3
5 2 4 8 1 0 4 5 5 1 3 14 6 8 5 5 6 5 8 7 8 9 9 8 12 13 15 15 14 13 13 10 8 6 4 3 4 6 7 5 4 6 7 11
7 7 12 15 10 3 4 6 7 7 5 6 17 17 7 10 9 8 8 9 8 8 7 8 7 9 13 13 13 14 14 13 12 9 7 7 6 6 5 6 6 10 13 9
6 15 8 18 13 6 14 16 14 15 17 12 23 18 6 11 11 11 10 9 9 8 7 7 7 7 10 10 12 14 14 14 13 11 9 8 8 7 8 8 9 9 11 10
3 4 4 18 14 16 21 29 21 22 24 24 25 30 8 11 11 11 10 9 8 7 7 7 5 6 8 9 10 11 13 13 11 10 10 10 9 9 9 9 9 9 10 12
6 4 4 13 11 13 15 24 24 15 14 14 18 14 10 11 11 8 8 8 7 6 6 5 5 7 8 10 10 12 12 11 11 10 10 10 10 10 10 10 10 10 12 13
12 9 5 9 10 13 6 2 3 4 1 6 9 11 8 11 10 8 7 7 7 6 5 5 6 6 6 8 10 11 11 12 12 11 11 11 12 12 13 13 13 13 14 15
21 17 8 7 11 11 4 3 3 6 1 3 7 8 12 13 10 6 7 6 5 5 6 5 7 7 7 8 11 12 12 11 11 12 13 13 14 16 16 16 17 17 18 18
12 21 13 7 11 13 1 2 4 2 4 2 9 7 8 5 1 3 6 6 6 7 7 7 10 8 8 11 13 12 10 10 11 14 17 17 17 18 18 19 18 18 18 20
3 3 16 16 13 4 2 4 6 5 2 7 9 7 4 4 3 5 7 6 6 5 7 9 10 8 9 13 14 13 11 11 14 19 18 18 18 19 18 18 19 20 21 21
5 4 6 7 8 12 12 2 1 3 8 7 8 7 8 8 7 6 6 4 5 6 8 9 10 9 12 15 14 11 13 16 19 17 20 21 21 20 16 18 21 21 20 20
4 3 4 5 1 3 5 7 9 7 6 6 6 6 5 6 6 5 3 3 4 8 10 11 11 9 17 17 12 14 19 21 17 20 23 21 20 20 19 20 18 17 18 21
4 7 3 2 4 5 6 9 11 10 8 5 4 4 6 5 3 2 3 3 6 9 11 12 10 16 20 15 15 19 20 17 19 22 22 21 20 22 20 20 20 18 20 22
4 7 4 4 3 4 9 8 6 6 4 4 5 7 6 4 2 2 2 5 9 11 12 11 14 15 16 18 21 21 18 20 20 20 20 21 21 20 21 20 20 21 21 22
6 5 4 3 5 2 4 5 5 5 7 7 7 6 5 4 3 4 5 9 12 14 10 13 13 14 17 20 23 24 22 19 20 20 18 18 18 20 18 19 22 21 21 23
Wind_Direction
12 66 221 221 194 166 165 220 248 252 273 264 224 273 286 287 239 248 222 204 206 212 207 196 197 193 187 185 184 182 179 176 178 175 166 162 156 136 118 105 95 90 82 79
18 229 203 132 150 163 194 252 258 286 230 239 301 278 280 290 251 229 229 211 206 170 164 170 186 189 188 187 189 186 186 184 184 187 187 189 177 167 146 122 109 98 92 86
181 207 143 155 172 191 224 205 221 232 340 269 319 282 296 300 268 251 235 223 198 195 179 173 175 185 190 191 191 190 189 188 190 193 202 190 173 162 163 155 137 118 105 93
230 124 170 173 231 161 275 196 182 257 38 249 13 289 305 301 296 258 258 216 210 182 160 171 173 180 194 198 194 193 191 190 190 193 195 195 194 184 193 185 162 143 126 115
257 167 191 203 220 167 228 134 182 176 181 10 258 183 267 321 302 269 238 237 206 187 162 176 185 189 193 195 192 191 190 190 192 195 204 207 211 205 188 179 170 162 145 128
241 240 188 210 158 178 128 91 56 53 92 320 218 166 274 234 267 322 322 229 178 120 128 129 146 167 184 187 189 189 190 189 193 198 203 211 213 202 184 184 184 184 174 161
295 221 204 160 138 50 101 61 322 331 353 232 174 176 241 295 325 278 232 81 81 71 83 103 123 147 170 177 185 187 188 188 194 199 203 208 208 200 200 200 199 199 201 202
205 310 179 176 202 183 178 171 163 263 231 262 95 244 251 199 35 35 42 66 61 53 52 52 59 102 148 174 184 186 188 190 194 199 203 203 201 203 203 206 206 211 222 223
174 266 116 169 150 145 178 188 187 218 83 339 228 292 289 94 40 43 46 56 51 47 46 48 44 42 88 131 177 191 191 194 198 206 208 205 203 203 204 202 206 215 220 229
220 290 205 140 105 54 168 171 80 5 257 250 269 267 234 197 161 40 56 69 67 65 58 51 49 49 70 83 92 127 190 200 203 211 212 215 209 201 194 194 199 203 214 239
159 161 234 115 199 188 131 227 222 190 170 225 281 253 203 215 162 139 103 88 81 64 66 58 57 52 50 67 69 62 66 68 75 268 238 217 202 197 192 190 188 212 265 261
207 173 235 217 238 199 182 205 177 207 232 236 262 265 142 128 137 140 134 119 97 83 72 64 59 58 54 46 48 51 57 58 55 63 86 101 103 37 278 272 254 260 238 227
178 239 317 315 19 351 213 203 199 90 82 239 240 257 162 130 100 97 120 119 112 101 80 67 58 48 56 55 52 45 50 45 33 30 27 360 332 314 298 295 281 223 238 278
161 202 235 251 250 143 206 217 197 177 218 226 234 259 185 198 171 151 139 121 110 96 88 88 77 59 55 51 44 36 33 31 26 18 7 351 339 337 347 275 272 271 278 282
189 249 209 250 262 261 270 259 237 222 229 236 264 255 259 204 171 157 138 121 113 98 85 69 67 55 51 47 35 33 31 19 10 2 3 355 341 325 300 278 283 280 272 275
200 259 221 264 259 261 265 259 254 245 247 242 251 263 111 113 112 121 125 125 115 101 88 73 59 48 42 37 26 19 18 15 10 1 357 355 346 334 323 307 296 284 278 275
181 205 209 256 259 256 255 251 243 237 232 226 241 258 144 140 136 129 114 102 105 103 97 85 66 40 26 20 11 7 6 7 9 359 355 349 343 340 334 324 318 311 302 296
228 212 222 260 265 240 264 353 306 234 336 109 108 133 141 126 99 88 78 102 98 91 75 76 49 24 20 20 8 353 349 353 353 354 345 340 339 334 327 322 318 314 309 303
226 235 254 246 233 270 258 188 157 186 230 44 130 119 115 111 99 87 88 71 64 72 58 55 27 9 359 1 356 350 350 345 344 349 340 328 328 326 321 314 313 311 306 302
225 227 232 236 253 257 19 36 350 259 250 84 110 94 130 148 160 102 87 66 57 35 22 18 2 353 356 354 345 342 344 346 344 334 326 318 316 314 310 310 310 310 307 302
164 200 227 235 250 227 14 343 318 205 328 103 110 108 110 127 95 102 101 80 60 36 5 355 347 345 346 347 338 330 328 330 322 320 316 310 309 309 312 308 305 304 303 299
203 219 235 234 247 266 355 336 121 23 27 55 64 74 93 105 103 79 81 56 24 359 346 349 330 321 325 333 325 313 311 317 318 316 312 309 310 311 308 306 305 303 301 298
269 2 340 29 78 32 359 56 46 68 70 28 44 40 71 77 57 53 16 360 347 341 328 325 321 311 317 323 315 308 309 313 312 311 310 310 308 308 307 307 303 300 297 296
57 9 55 171 42 56 40 50 48 46 60 48 57 50 56 65 37 11 350 331 323 320 315 317 313 316 310 309 303 302 309 308 309 307 307 306 305 307 303 300 299 293 292 292
333 337 2 92 72 67 50 42 51 56 58 49 46 36 32 16 353 263 305 307 300 303 312 312 304 294 289 301 303 310 308 311 306 304 300 299 300 299 301 297 294 293 292 288
356 342 6 5 345 22 46 38 34 42 26 18 20 3 359 350 330 306 268 297 311 304 302 296 289 289 295 305 308 311 313 310 302 297 295 295 297 295 294 293 294 298 293 292